This is the latest recevied weather packets stored in our database for station/object WC4PEM-13. If no packets are shown the sender has not sent any weather packets the latest 10 day(s).
| Time | Temp. | Humidity | Pressure | Rain* | Wind** | Luminosity | Snow |
|---|---|---|---|---|---|---|---|
| 1777326167 | 28.33° C | 65% | 1016.3 hPa | 0 mm | - | - | - |
| 1777325868 | 28.33° C | 67% | 1016 hPa | 0 mm | - | - | - |
| 1777325567 | 27.78° C | 69% | 1015.9 hPa | 0 mm | - | - | - |
| 1777325268 | 27.78° C | 69% | 1016 hPa | 0 mm | - | - | - |
| 1777324967 | 27.22° C | 70% | 1016 hPa | 0 mm | - | - | - |
| 1777324668 | 27.22° C | 70% | 1016 hPa | 0 mm | - | - | - |
| 1777324368 | 27.22° C | 69% | 1015.9 hPa | 0 mm | - | - | - |
| 1777324068 | 27.78° C | 68% | 1015.9 hPa | 0 mm | - | - | - |
| 1777323767 | 27.78° C | 69% | 1015.8 hPa | 0 mm | - | - | - |
| 1777323468 | 28.33° C | 67% | 1015.8 hPa | 0 mm | - | - | - |
| 1777323168 | 28.33° C | 66% | 1015.8 hPa | 0 mm | - | - | - |
| 1777322868 | 28.33° C | 65% | 1015.8 hPa | 0 mm | - | - | - |
| 1777322568 | 28.33° C | 65% | 1015.7 hPa | 0 mm | - | - | - |
| 1777322268 | 28.89° C | 64% | 1015.8 hPa | 0 mm | - | - | - |
| 1777321968 | 28.89° C | 64% | 1015.6 hPa | 0 mm | - | - | - |
| 1777321668 | 28.33° C | 65% | 1015.7 hPa | 0 mm | - | - | - |
| 1777321368 | 28.33° C | 66% | 1015.6 hPa | 0 mm | - | - | - |
| 1777321068 | 28.89° C | 67% | 1015.7 hPa | 0 mm | - | - | - |
| 1777320768 | 28.33° C | 67% | 1015.7 hPa | 0 mm | - | - | - |
| 1777320468 | 28.33° C | 68% | 1015.8 hPa | 0 mm | - | - | - |
| 1777320168 | 28.33° C | 68% | 1015.6 hPa | 0 mm | - | - | - |
| 1777319868 | 28.33° C | 67% | 1015.8 hPa | 0 mm | - | - | - |
| 1777319568 | 28.33° C | 68% | 1015.8 hPa | 0 mm | - | - | - |
| 1777319268 | 28.33° C | 67% | 1015.8 hPa | 0 mm | - | - | - |
| 1777318968 | 29.44° C | 65% | 1015.8 hPa | 0 mm | - | - | - |
* Rain latest hour (hover to see other rain measurements)
** Current wind speed in m/s (hover to see current wind gust speed)